| time (UTC) | temp F | wind direction | speed knots | gust knots | rain 1hr in | rain 24hr in | rain mn in | humidity % | barometer mb |
| 20260503224825 | 77 | 209 | 1.7 | 1.7 | 0.00 | 0.00 | 0.00 | 40 | 1020.5 |
| 20260503224322 | 78 | 169 | 2.6 | 2.6 | 0.00 | 0.00 | 0.00 | 41 | 1020.4 |
| 20260503223820 | 78 | 167 | 4.3 | 6.1 | 0.00 | 0.00 | 0.00 | 40 | 1020.6 |
| 20260503223317 | 78 | 218 | 1.7 | 2.6 | 0.00 | 0.00 | 0.00 | 40 | 1020.6 |
| 20260503222812 | 78 | 215 | 2.6 | 2.6 | 0.00 | 0.00 | 0.00 | 39 | 1020.6 |
| 20260503222311 | 79 | 129 | 0.0 | 0.9 | 0.00 | 0.00 | 0.00 | 37 | 1020.6 |
| 20260503221809 | 79 | 178 | 0.9 | 1.7 | 0.00 | 0.00 | 0.00 | 38 | 1021.0 |
| 20260503221307 | 79 | 197 | 2.6 | 4.3 | 0.00 | 0.00 | 0.00 | 37 | 1020.9 |
| 20260503220803 | 79 | 189 | 2.6 | 2.6 | 0.00 | 0.00 | 0.00 | 36 | 1020.9 |
| 20260503220300 | 79 | 157 | 3.5 | 6.1 | 0.00 | 0.00 | 0.00 | 38 | 1021.0 |
| 20260503215757 | 79 | 211 | 1.7 | 1.7 | 0.00 | 0.00 | 0.00 | 37 | 1021.2 |
| 20260503215254 | 80 | 220 | 4.3 | 6.1 | 0.00 | 0.00 | 0.00 | 36 | 1021.2 |
| 20260503214752 | 79 | 184 | 4.3 | 6.1 | 0.00 | 0.00 | 0.00 | 35 | 1021.5 |
| 20260503214248 | 80 | 212 | 0.0 | 0.9 | 0.00 | 0.00 | 0.00 | 37 | 1021.4 |
| 20260503213746 | 79 | 108 | 3.5 | 5.2 | 0.00 | 0.00 | 0.00 | 35 | 1021.4 |
| 20260503213243 | 80 | 122 | 4.3 | 5.2 | 0.00 | 0.00 | 0.00 | 36 | 1021.6 |
| 20260503212740 | 79 | 136 | 4.3 | 6.1 | 0.00 | 0.00 | 0.00 | 38 | 1021.7 |
| 20260503212238 | 80 | 127 | 9.6 | 11.3 | 0.00 | 0.00 | 0.00 | 35 | 1021.8 |
| 20260503211735 | 80 | 156 | 5.2 | 7.0 | 0.00 | 0.00 | 0.00 | 34 | 1021.9 |
| 20260503211231 | 80 | 171 | 4.3 | 5.2 | 0.00 | 0.00 | 0.00 | 34 | 1022.0 |
| 20260503210727 | 80 | 161 | 0.9 | 1.7 | 0.00 | 0.00 | 0.00 | 38 | 1022.2 |
| 20260503210225 | 80 | 188 | 5.2 | 7.0 | 0.00 | 0.00 | 0.00 | 35 | 1022.3 |
| 20260503205720 | 80 | 120 | 5.2 | 8.7 | 0.00 | 0.00 | 0.00 | 36 | 1022.4 |
| 20260503205216 | 80 | 193 | 0.9 | 1.7 | 0.00 | 0.00 | 0.00 | 37 | 1022.5 |
| 20260503204713 | 80 | 176 | 2.6 | 4.3 | 0.00 | 0.00 | 0.00 | 36 | 1022.3 |
| 20260503204211 | 81 | 180 | 4.3 | 7.8 | 0.00 | 0.00 | 0.00 | 34 | 1022.7 |
| 20260503203708 | 81 | 203 | 2.6 | 4.3 | 0.00 | 0.00 | 0.00 | 37 | 1022.6 |
| 20260503203205 | 80 | 146 | 5.2 | 6.1 | 0.00 | 0.00 | 0.00 | 35 | 1022.9 |
| 20260503202702 | 80 | 140 | 5.2 | 7.8 | 0.00 | 0.00 | 0.00 | 36 | 1022.8 |
| 20260503202200 | 79 | 197 | 5.2 | 7.0 | 0.00 | 0.00 | 0.00 | 35 | 1022.9 |
| 20260503201658 | 80 | 212 | 4.3 | 6.1 | 0.00 | 0.00 | 0.00 | 36 | 1023.3 |
| 20260503201155 | 80 | 196 | 1.7 | 1.7 | 0.00 | 0.00 | 0.00 | 38 | 1023.1 |
| 20260503200651 | 80 | 169 | 2.6 | 2.6 | 0.00 | 0.00 | 0.00 | 37 | 1023.1 |
| 20260503200148 | 80 | 155 | 5.2 | 7.0 | 0.00 | 0.00 | 0.00 | 37 | 1023.3 |
| 20260503195644 | 80 | 191 | 3.5 | 4.3 | 0.00 | 0.00 | 0.00 | 34 | 1023.2 |
| 20260503195142 | 79 | 183 | 6.1 | 7.0 | 0.00 | 0.00 | 0.00 | 37 | 1023.3 |
| 20260503194638 | 80 | 209 | 1.7 | 2.6 | 0.00 | 0.00 | 0.00 | 36 | 1023.5 |
| 20260503194134 | 80 | 210 | 4.3 | 6.1 | 0.00 | 0.00 | 0.00 | 37 | 1023.6 |
| 20260503193631 | 80 | 233 | 2.6 | 4.3 | 0.00 | 0.00 | 0.00 | 37 | 1023.7 |
| 20260503193126 | 80 | 156 | 3.5 | 6.1 | 0.00 | 0.00 | 0.00 | 37 | 1023.5 |
| 20260503192622 | 80 | 196 | 2.6 | 2.6 | 0.00 | 0.00 | 0.00 | 40 | 1023.6 |
| 20260503192118 | 80 | 215 | 5.2 | 7.0 | 0.00 | 0.00 | 0.00 | 36 | 1023.6 |
| 20260503191615 | 80 | 196 | 2.6 | 2.6 | 0.00 | 0.00 | 0.00 | 36 | 1023.5 |
| 20260503191112 | 80 | 221 | 0.9 | 0.9 | 0.00 | 0.00 | 0.00 | 37 | 1023.7 |
| 20260503190609 | 80 | 172 | 4.3 | 5.2 | 0.00 | 0.00 | 0.00 | 38 | 1023.6 |
| 20260503190106 | 81 | 181 | 3.5 | 4.3 | 0.00 | 0.00 | 0.00 | 34 | 1023.9 |
| 20260503185603 | 80 | 212 | 3.5 | 6.1 | 0.00 | 0.00 | 0.00 | 35 | 1024.2 |
| 20260503185102 | 80 | 218 | 0.0 | 0.0 | 0.00 | 0.00 | 0.00 | 37 | 1024.0 |
| 20260503184558 | 79 | 158 | 6.1 | 7.0 | 0.00 | 0.00 | 0.00 | 35 | 1024.3 |
| 20260503184055 | 80 | 176 | 3.5 | 4.3 | 0.00 | 0.00 | 0.00 | 34 | 1024.1 |
| 20260503183551 | 80 | 227 | 2.6 | 2.6 | 0.00 | 0.00 | 0.00 | 35 | 1024.5 |
| 20260503183049 | 79 | 228 | 1.7 | 2.6 | 0.00 | 0.00 | 0.00 | 38 | 1024.3 |
| 20260503182547 | 80 | 198 | 3.5 | 4.3 | 0.00 | 0.00 | 0.00 | 35 | 1024.7 |
| 20260503182045 | 80 | 197 | 2.6 | 4.3 | 0.00 | 0.00 | 0.00 | 35 | 1024.5 |
| 20260503181541 | 79 | 176 | 0.0 | 0.0 | 0.00 | 0.00 | 0.00 | 41 | 1024.8 |
| 20260503181038 | 79 | 185 | 5.2 | 6.1 | 0.00 | 0.00 | 0.00 | 37 | 1024.8 |
| 20260503180535 | 80 | 130 | 4.3 | 6.1 | 0.00 | 0.00 | 0.00 | 35 | 1025.0 |
| 20260503180032 | 79 | 209 | 0.0 | 0.9 | 0.00 | 0.00 | 0.00 | 40 | 1024.9 |
| 20260503175530 | 79 | 170 | 2.6 | 4.3 | 0.00 | 0.00 | 0.00 | 41 | 1025.2 |
| 20260503175027 | 79 | 177 | 2.6 | 6.1 | 0.00 | 0.00 | 0.00 | 42 | 1025.3 |
| 20260503174524 | 79 | 196 | 4.3 | 6.1 | 0.00 | 0.00 | 0.00 | 40 | 1025.5 |
| 20260503174020 | 79 | 224 | 0.9 | 1.7 | 0.00 | 0.00 | 0.00 | 39 | 1025.4 |
| 20260503173515 | 78 | 219 | 4.3 | 7.0 | 0.00 | 0.00 | 0.00 | 41 | 1025.8 |
| 20260503173012 | 78 | 164 | 5.2 | 7.8 | 0.00 | 0.00 | 0.00 | 44 | 1025.4 |
| 20260503172510 | 79 | 214 | 3.5 | 6.1 | 0.00 | 0.00 | 0.00 | 38 | 1025.2 |
| 20260503172006 | 78 | 225 | 2.6 | 4.3 | 0.00 | 0.00 | 0.00 | 42 | 1025.9 |
| 20260503171503 | 78 | 209 | 0.9 | 1.7 | 0.00 | 0.00 | 0.00 | 46 | 1025.6 |
| 20260503171000 | 78 | 191 | 5.2 | 6.1 | 0.00 | 0.00 | 0.00 | 42 | 1025.9 |
| 20260503170456 | 79 | 194 | 4.3 | 5.2 | 0.00 | 0.00 | 0.00 | 41 | 1026.0 |
| 20260503150849 | 71 | 205 | 0.0 | 0.0 | 0.00 | 0.00 | 0.00 | 65 | 1026.6 |
| 20260503150345 | 70 | 248 | 0.0 | 0.9 | 0.00 | 0.00 | 0.00 | 63 | 1026.8 |
| 20260503140309 | 66 | 239 | 0.9 | 0.9 | 0.00 | 0.00 | 0.00 | 71 | 1026.4 |
| 20260503131239 | 55 | 221 | 0.0 | 0.0 | 0.00 | 0.00 | 0.00 | 99 | 1026.5 |
| 20260503130736 | 55 | 240 | 0.0 | 0.0 | 0.00 | 0.00 | 0.00 | 99 | 1026.3 |
| 20260503130233 | 54 | 239 | 0.0 | 0.0 | 0.00 | 0.00 | 0.00 | 99 | 1026.4 |
| 20260503120159 | 51 | 205 | 0.0 | 0.0 | 0.00 | 0.00 | 0.00 | 99 | 1025.6 |
| 20260503110627 | 52 | 205 | 0.0 | 0.0 | 0.00 | 0.00 | 0.00 | 99 | 1025.1 |
| 20260503110124 | 52 | 205 | 0.0 | 0.0 | 0.00 | 0.00 | 0.00 | 99 | 1025.4 |
| 20260503081440 | 54 | 205 | 0.0 | 0.0 | 0.00 | 0.00 | 0.00 | 99 | 1025.0 |
| 20260503080937 | 55 | 205 | 0.0 | 0.0 | 0.00 | 0.00 | 0.00 | 99 | 1024.7 |
| 20260503080433 | 54 | 205 | 0.0 | 0.0 | 0.00 | 0.00 | 0.00 | 99 | 1024.8 |
| 20260503072910 | 55 | 205 | 0.0 | 0.0 | 0.00 | 0.00 | 0.00 | 97 | 1025.0 |
| 20260503072407 | 55 | 205 | 0.0 | 0.0 | 0.00 | 0.00 | 0.00 | 97 | 1025.1 |
| 20260503071904 | 55 | 205 | 0.0 | 0.0 | 0.00 | 0.00 | 0.00 | 97 | 1025.0 |
| 20260503071401 | 56 | 205 | 0.0 | 0.0 | 0.00 | 0.00 | 0.00 | 97 | 1025.2 |
| 20260503070856 | 55 | 205 | 0.0 | 0.0 | 0.00 | 0.00 | 0.00 | 96 | 1024.9 |
| 20260503070355 | 56 | 205 | 0.0 | 0.0 | 0.00 | 0.00 | 0.00 | 96 | 1025.1 |
| 20260503060320 | 56 | 205 | 0.0 | 0.0 | 0.00 | 0.00 | 0.00 | 90 | 1025.3 |
| 20260503054808 | 56 | 205 | 0.0 | 0.0 | 0.00 | 0.00 | 0.00 | 88 | 1025.2 |
| 20260503054304 | 57 | 205 | 0.0 | 0.0 | 0.00 | 0.00 | 0.00 | 87 | 1025.2 |
| 20260503053802 | 57 | 205 | 0.0 | 0.0 | 0.00 | 0.00 | 0.00 | 87 | 1025.2 |
| 20260503053300 | 57 | 205 | 0.0 | 0.0 | 0.00 | 0.00 | 0.00 | 87 | 1025.3 |
| 20260503052756 | 57 | 205 | 0.0 | 0.0 | 0.00 | 0.00 | 0.00 | 87 | 1025.4 |
| 20260503052253 | 56 | 205 | 0.0 | 0.0 | 0.00 | 0.00 | 0.00 | 87 | 1025.3 |
| 20260503051748 | 56 | 205 | 0.0 | 0.0 | 0.00 | 0.00 | 0.00 | 87 | 1025.3 |
| 20260503051246 | 57 | 205 | 0.0 | 0.0 | 0.00 | 0.00 | 0.00 | 86 | 1025.4 |
| 20260503050742 | 57 | 205 | 0.0 | 0.0 | 0.00 | 0.00 | 0.00 | 86 | 1025.2 |
| 20260503050239 | 57 | 205 | 0.0 | 0.0 | 0.00 | 0.00 | 0.00 | 86 | 1025.1 |
| 20260503045736 | 57 | 205 | 0.0 | 0.0 | 0.00 | 0.00 | 0.00 | 86 | 1025.2 |
| 20260503045234 | 57 | 205 | 0.0 | 0.0 | 0.00 | 0.00 | 0.00 | 87 | 1025.2 |
| 20260503044730 | 57 | 205 | 0.0 | 0.0 | 0.00 | 0.00 | 0.00 | 87 | 1025.1 |
| 20260503044228 | 58 | 205 | 0.0 | 0.0 | 0.00 | 0.00 | 0.00 | 87 | 1025.1 |
| 20260503043724 | 58 | 205 | 0.0 | 0.0 | 0.00 | 0.00 | 0.00 | 86 | 1025.3 |
| 20260503043222 | 59 | 205 | 0.0 | 0.0 | 0.00 | 0.00 | 0.00 | 85 | 1025.3 |
| 20260503042717 | 59 | 205 | 0.0 | 0.0 | 0.00 | 0.00 | 0.00 | 84 | 1025.1 |
| 20260503042214 | 59 | 205 | 0.0 | 0.0 | 0.00 | 0.00 | 0.00 | 82 | 1025.2 |
| 20260503041710 | 59 | 205 | 0.0 | 0.0 | 0.00 | 0.00 | 0.00 | 81 | 1025.2 |
| 20260503041208 | 59 | 205 | 0.0 | 0.0 | 0.00 | 0.00 | 0.00 | 80 | 1025.0 |
| 20260503040705 | 58 | 205 | 0.0 | 0.0 | 0.00 | 0.00 | 0.00 | 81 | 1025.0 |
| 20260503040203 | 58 | 205 | 0.0 | 0.0 | 0.00 | 0.00 | 0.00 | 84 | 1024.9 |
| 20260503035659 | 58 | 205 | 0.0 | 0.0 | 0.00 | 0.00 | 0.00 | 84 | 1024.8 |
| 20260503035157 | 59 | 205 | 0.0 | 0.0 | 0.00 | 0.00 | 0.00 | 84 | 1024.9 |
| 20260503034654 | 59 | 205 | 0.0 | 0.0 | 0.00 | 0.00 | 0.00 | 83 | 1024.9 |
| 20260503034151 | 60 | 205 | 0.0 | 0.0 | 0.00 | 0.00 | 0.00 | 83 | 1024.8 |
| 20260503033649 | 60 | 205 | 0.0 | 0.0 | 0.00 | 0.00 | 0.00 | 83 | 1024.7 |
| 20260503033146 | 59 | 205 | 0.0 | 0.0 | 0.00 | 0.00 | 0.00 | 83 | 1024.7 |
| 20260503032644 | 59 | 205 | 0.0 | 0.0 | 0.00 | 0.00 | 0.00 | 81 | 1024.9 |
| 20260503032143 | 59 | 205 | 0.0 | 0.0 | 0.00 | 0.00 | 0.00 | 79 | 1024.7 |
| 20260503031639 | 59 | 205 | 0.0 | 0.0 | 0.00 | 0.00 | 0.00 | 75 | 1024.8 |
| 20260503031137 | 60 | 205 | 0.0 | 0.0 | 0.00 | 0.00 | 0.00 | 73 | 1024.6 |
| 20260503030633 | 61 | 205 | 0.0 | 0.0 | 0.00 | 0.00 | 0.00 | 70 | 1024.5 |
| 20260503030130 | 62 | 205 | 0.0 | 0.0 | 0.00 | 0.00 | 0.00 | 69 | 1024.5 |
| 20260503025626 | 61 | 205 | 0.0 | 0.0 | 0.00 | 0.00 | 0.00 | 69 | 1024.4 |
| 20260503025125 | 61 | 205 | 0.0 | 0.0 | 0.00 | 0.00 | 0.00 | 71 | 1024.4 |
| 20260503024621 | 62 | 204 | 0.0 | 0.0 | 0.00 | 0.00 | 0.00 | 68 | 1024.4 |
| 20260503024118 | 62 | 204 | 0.0 | 0.0 | 0.00 | 0.00 | 0.00 | 67 | 1024.5 |
| 20260503023615 | 62 | 204 | 0.0 | 0.0 | 0.00 | 0.00 | 0.00 | 67 | 1024.4 |
| 20260503023112 | 62 | 205 | 0.0 | 0.0 | 0.00 | 0.00 | 0.00 | 67 | 1024.4 |
| 20260503022607 | 63 | 204 | 0.0 | 0.0 | 0.00 | 0.00 | 0.00 | 68 | 1023.9 |
| 20260503022102 | 63 | 204 | 0.0 | 0.0 | 0.00 | 0.00 | 0.00 | 67 | 1023.9 |
| 20260503021600 | 63 | 204 | 0.0 | 0.0 | 0.00 | 0.00 | 0.00 | 66 | 1024.0 |
| 20260503021056 | 63 | 204 | 0.0 | 0.0 | 0.00 | 0.00 | 0.00 | 65 | 1023.8 |
| 20260503020553 | 64 | 204 | 0.0 | 0.0 | 0.00 | 0.00 | 0.00 | 63 | 1023.6 |
| 20260503020050 | 64 | 204 | 0.0 | 0.0 | 0.00 | 0.00 | 0.00 | 63 | 1023.7 |
| 20260503015547 | 64 | 204 | 0.0 | 0.0 | 0.00 | 0.00 | 0.00 | 63 | 1023.5 |
| 20260503015045 | 64 | 204 | 0.0 | 0.0 | 0.00 | 0.00 | 0.00 | 63 | 1023.8 |
| 20260503014540 | 63 | 204 | 0.0 | 0.0 | 0.00 | 0.00 | 0.00 | 64 | 1023.7 |
| 20260503014038 | 64 | 204 | 0.0 | 0.0 | 0.00 | 0.00 | 0.00 | 64 | 1023.5 |
| 20260503013535 | 64 | 204 | 0.0 | 0.0 | 0.00 | 0.00 | 0.00 | 63 | 1023.6 |
| 20260503013033 | 65 | 204 | 0.0 | 0.0 | 0.00 | 0.00 | 0.00 | 62 | 1023.5 |
| 20260503012530 | 65 | 204 | 0.0 | 0.0 | 0.00 | 0.00 | 0.00 | 61 | 1023.7 |
| 20260503012026 | 66 | 204 | 0.0 | 0.0 | 0.00 | 0.00 | 0.00 | 61 | 1023.3 |
| 20260503011523 | 66 | 205 | 0.0 | 0.0 | 0.00 | 0.00 | 0.00 | 60 | 1023.6 |
| 20260503011021 | 66 | 204 | 0.0 | 0.0 | 0.00 | 0.00 | 0.00 | 59 | 1023.3 |
| 20260503010516 | 67 | 204 | 0.0 | 0.0 | 0.00 | 0.00 | 0.00 | 59 | 1023.3 |
| 20260503010015 | 67 | 204 | 0.0 | 0.0 | 0.00 | 0.00 | 0.00 | 58 | 1023.3 |
| 20260503005511 | 68 | 205 | 0.0 | 0.0 | 0.00 | 0.00 | 0.00 | 57 | 1023.4 |
| 20260503005009 | 68 | 205 | 0.0 | 0.0 | 0.00 | 0.00 | 0.00 | 57 | 1023.4 |
| 20260503004504 | 69 | 205 | 0.0 | 0.0 | 0.00 | 0.00 | 0.00 | 56 | 1023.3 |
| 20260503004003 | 69 | 205 | 0.0 | 0.0 | 0.00 | 0.00 | 0.00 | 52 | 1023.1 |
| 20260503003459 | 69 | 205 | 0.0 | 0.0 | 0.00 | 0.00 | 0.00 | 51 | 1023.3 |
| 20260503002956 | 70 | 205 | 0.0 | 0.0 | 0.00 | 0.00 | 0.00 | 52 | 1023.2 |
| 20260503002453 | 70 | 204 | 0.0 | 0.0 | 0.00 | 0.00 | 0.00 | 49 | 1023.0 |
| 20260503001949 | 70 | 204 | 0.0 | 0.0 | 0.00 | 0.00 | 0.00 | 50 | 1023.1 |
| 20260503001446 | 71 | 205 | 0.0 | 0.0 | 0.00 | 0.00 | 0.00 | 49 | 1023.0 |
| 20260503000944 | 71 | 204 | 0.0 | 0.0 | 0.00 | 0.00 | 0.00 | 49 | 1023.2 |
| 20260503000441 | 71 | 264 | 0.0 | 0.0 | 0.00 | 0.00 | 0.00 | 45 | 1023.1 |
| 20260502235938 | 71 | 204 | 0.0 | 0.9 | 0.00 | 0.00 | 0.00 | 48 | 1023.1 |
| 20260502235435 | 71 | 240 | 0.0 | 0.0 | 0.00 | 0.00 | 0.00 | 49 | 1023.2 |
| 20260502234932 | 72 | 240 | 0.0 | 0.0 | 0.00 | 0.00 | 0.00 | 46 | 1023.0 |
| 20260502234429 | 72 | 240 | 0.0 | 0.0 | 0.00 | 0.00 | 0.00 | 46 | 1023.0 |
| 20260502233926 | 73 | 240 | 0.0 | 0.0 | 0.00 | 0.00 | 0.00 | 43 | 1023.1 |
| 20260502233421 | 73 | 296 | 0.9 | 1.7 | 0.00 | 0.00 | 0.00 | 43 | 1023.1 |
| 20260502232919 | 74 | 207 | 0.9 | 0.9 | 0.00 | 0.00 | 0.00 | 43 | 1023.1 |
| 20260502232414 | 74 | 195 | 0.0 | 0.9 | 0.00 | 0.00 | 0.00 | 44 | 1023.0 |
| 20260502231912 | 75 | 217 | 0.0 | 0.0 | 0.00 | 0.00 | 0.00 | 43 | 1023.0 |
| 20260502231409 | 76 | 265 | 0.0 | 0.0 | 0.00 | 0.00 | 0.00 | 42 | 1022.9 |
| 20260502230907 | 77 | 239 | 0.0 | 0.0 | 0.00 | 0.00 | 0.00 | 40 | 1023.0 |
| 20260502230405 | 76 | 238 | 0.0 | 0.0 | 0.00 | 0.00 | 0.00 | 41 | 1023.3 |
| 20260502225902 | 76 | 267 | 0.0 | 0.9 | 0.00 | 0.00 | 0.00 | 40 | 1023.1 |
| 20260502225358 | 76 | 231 | 2.6 | 5.2 | 0.00 | 0.00 | 0.00 | 38 | 1023.1 |